Location: Clarion
(42.7316°N, 93.7330°W)
Time: 08:16:56
(UTC+00:00)

Cosmos 1743 Rocket - Pass Details

Date: 22 April 2026
Orbit: 597 x 625 km, 82.6° (Epoch: 17 May)

Event Time Altitude Azimuth Distance (km) Brightness Sun altitude
Rises 10:34:48 0° 353° (N) 2,901 7.3 -8.9°
Reaches altitude 10° 10:37:03 10° 356° (N) 1,986 6.4 -8.6°
Maximum altitude 10:41:27 74° 81° (E) 641 3.8 -7.8°
Drops below altitude 10° 10:45:45 10° 167° (SSE) 1,952 6.0 -7.1°
Sets 10:47:57 0° 169° (S) 2,847 6.8 -6.7°
